Retour au catalogue

CZ-6A DEB

ActifPO
NORAD 60883·DEBRIS·🇨🇳 China

Lancé Aug 6, 2024 depuis Taiyuan Satellite Launch Center

Loading…

Prochains Passages (prochaines 24 heures)

TLE

FraisSource: Space-Track

Époque: Sep 14, 2026, 09:27 UTC

1 60883U 24140KN  26257.39422210  .00003432  00000-0  39416-3 0  9999
2 60883  88.8021 236.9210 0127867 234.5912 124.3317 14.79801654111160

Suivez CZ-6A DEB en temps réel avec AllMySat

Download on the App Store